Precipitable_Water
1.20 1.19 1.17 1.16 1.15 1.12 1.11 1.11 1.09 1.08 1.06 1.04 1.02 1.01 1.00 0.98 0.96 0.94 0.93 0.91 0.86 0.85 0.81 0.76 0.73 0.70 0.68 0.63 0.58 0.51 0.46 0.44 0.41 0.39 0.38 0.37 0.36 0.35 0.35 0.35 0.36 0.36 0.34 0.33 0.32 0.31 0.31 0.32 0.34 0.35 0.37 0.37
1.18 1.16 1.15 1.14 1.13 1.11 1.10 1.09 1.06 1.05 1.05 1.01 1.00 0.97 0.96 0.94 0.91 0.90 0.88 0.86 0.84 0.82 0.78 0.73 0.70 0.68 0.64 0.59 0.54 0.50 0.47 0.43 0.41 0.39 0.37 0.36 0.34 0.34 0.34 0.35 0.35 0.35 0.33 0.32 0.31 0.31 0.31 0.31 0.33 0.34 0.35 0.36
1.15 1.13 1.13 1.12 1.11 1.09 1.07 1.06 1.04 1.03 1.00 0.98 0.95 0.93 0.91 0.89 0.88 0.87 0.85 0.83 0.82 0.80 0.75 0.70 0.68 0.63 0.58 0.54 0.51 0.47 0.44 0.42 0.40 0.39 0.37 0.35 0.34 0.34 0.34 0.34 0.34 0.34 0.33 0.31 0.31 0.30 0.30 0.31 0.32 0.33 0.35 0.36
1.10 1.10 1.10 1.08 1.07 1.05 1.04 1.03 1.01 0.98 0.96 0.94 0.92 0.89 0.87 0.86 0.86 0.86 0.84 0.81 0.79 0.76 0.70 0.66 0.62 0.59 0.54 0.51 0.48 0.45 0.42 0.40 0.39 0.37 0.36 0.35 0.33 0.33 0.33 0.33 0.33 0.33 0.33 0.31 0.30 0.30 0.29 0.30 0.31 0.31 0.34 0.36
1.07 1.07 1.06 1.04 1.02 1.01 0.99 0.98 0.95 0.93 0.91 0.89 0.87 0.84 0.81 0.81 0.80 0.79 0.78 0.77 0.74 0.70 0.65 0.61 0.58 0.56 0.52 0.48 0.45 0.43 0.40 0.38 0.37 0.35 0.33 0.32 0.32 0.31 0.31 0.31 0.32 0.32 0.31 0.30 0.28 0.28 0.28 0.29 0.29 0.31 0.33 0.35
1.03 1.03 1.02 0.99 0.98 0.97 0.95 0.94 0.92 0.90 0.87 0.85 0.83 0.79 0.75 0.74 0.75 0.73 0.70 0.68 0.65 0.62 0.59 0.57 0.54 0.51 0.49 0.47 0.43 0.40 0.38 0.36 0.34 0.31 0.29 0.28 0.27 0.27 0.27 0.27 0.29 0.31 0.29 0.27 0.26 0.27 0.27 0.27 0.28 0.30 0.31 0.33
0.99 0.99 0.97 0.95 0.95 0.95 0.94 0.93 0.91 0.88 0.86 0.83 0.79 0.75 0.73 0.71 0.71 0.69 0.66 0.64 0.61 0.58 0.55 0.53 0.50 0.47 0.46 0.43 0.40 0.37 0.34 0.33 0.31 0.29 0.28 0.26 0.24 0.24 0.23 0.23 0.25 0.26 0.26 0.23 0.23 0.25 0.25 0.25 0.27 0.29 0.30 0.31
0.96 0.96 0.96 0.93 0.93 0.93 0.91 0.89 0.88 0.85 0.81 0.78 0.74 0.70 0.69 0.68 0.67 0.64 0.62 0.61 0.58 0.55 0.52 0.50 0.47 0.45 0.42 0.39 0.36 0.34 0.32 0.31 0.29 0.28 0.28 0.26 0.22 0.19 0.19 0.20 0.22 0.22 0.23 0.22 0.20 0.20 0.23 0.24 0.26 0.27 0.28 0.29
0.94 0.96 0.95 0.91 0.88 0.88 0.86 0.84 0.82 0.79 0.76 0.73 0.69 0.66 0.64 0.62 0.60 0.58 0.55 0.55 0.52 0.50 0.48 0.44 0.39 0.36 0.33 0.31 0.28 0.27 0.25 0.24 0.23 0.23 0.22 0.20 0.18 0.18 0.18 0.18 0.19 0.20 0.20 0.22 0.21 0.20 0.19 0.22 0.24 0.25 0.27 0.28
0.93 0.94 0.91 0.85 0.83 0.83 0.81 0.78 0.76 0.73 0.70 0.68 0.64 0.61 0.58 0.55 0.53 0.51 0.50 0.49 0.47 0.45 0.43 0.38 0.34 0.31 0.27 0.25 0.23 0.23 0.21 0.21 0.20 0.20 0.19 0.19 0.18 0.18 0.19 0.18 0.19 0.20 0.20 0.21 0.22 0.21 0.19 0.19 0.21 0.23 0.25 0.26
0.88 0.88 0.86 0.78 0.76 0.73 0.71 0.70 0.68 0.64 0.62 0.59 0.56 0.52 0.49 0.44 0.44 0.44 0.44 0.43 0.42 0.39 0.37 0.33 0.29 0.26 0.23 0.21 0.20 0.20 0.19 0.18 0.19 0.18 0.18 0.18 0.18 0.19 0.19 0.19 0.19 0.20 0.21 0.21 0.22 0.23 0.22 0.19 0.18 0.21 0.23 0.25
0.81 0.82 0.78 0.72 0.70 0.67 0.66 0.65 0.63 0.61 0.58 0.54 0.50 0.46 0.44 0.41 0.39 0.38 0.37 0.37 0.36 0.33 0.30 0.26 0.24 0.22 0.20 0.20 0.19 0.20 0.19 0.18 0.18 0.17 0.18 0.18 0.18 0.18 0.18 0.18 0.18 0.19 0.19 0.20 0.22 0.22 0.23 0.22 0.18 0.18 0.22 0.23
0.78 0.76 0.74 0.70 0.66 0.64 0.65 0.63 0.61 0.59 0.55 0.51 0.47 0.44 0.43 0.40 0.38 0.38 0.37 0.35 0.33 0.31 0.26 0.23 0.21 0.19 0.18 0.18 0.17 0.18 0.17 0.17 0.16 0.16 0.17 0.17 0.17 0.17 0.17 0.17 0.17 0.18 0.18 0.19 0.20 0.21 0.22 0.22 0.21 0.17 0.17 0.20
0.74 0.74 0.73 0.70 0.65 0.64 0.63 0.61 0.60 0.58 0.54 0.50 0.45 0.44 0.43 0.40 0.38 0.37 0.35 0.33 0.32 0.30 0.26 0.24 0.21 0.19 0.17 0.16 0.16 0.16 0.15 0.16 0.16 0.15 0.15 0.15 0.15 0.16 0.16 0.16 0.17 0.17 0.18 0.18 0.19 0.21 0.21 0.23 0.23 0.21 0.16 0.16
0.74 0.75 0.74 0.72 0.68 0.64 0.62 0.60 0.57 0.55 0.52 0.48 0.45 0.44 0.42 0.40 0.38 0.37 0.36 0.33 0.32 0.30 0.28 0.25 0.22 0.19 0.17 0.16 0.16 0.16 0.15 0.16 0.15 0.15 0.14 0.14 0.14 0.14 0.15 0.15 0.16 0.16 0.16 0.17 0.18 0.20 0.20 0.22 0.24 0.23 0.22 0.20
0.71 0.72 0.73 0.73 0.70 0.65 0.61 0.58 0.55 0.52 0.49 0.46 0.44 0.43 0.41 0.39 0.38 0.38 0.36 0.34 0.33 0.31 0.28 0.25 0.22 0.19 0.18 0.16 0.16 0.17 0.16 0.15 0.16 0.15 0.15 0.15 0.15 0.15 0.15 0.14 0.15 0.15 0.15 0.15 0.16 0.18 0.19 0.21 0.22 0.23 0.23 0.22
0.68 0.69 0.70 0.70 0.69 0.66 0.60 0.56 0.54 0.51 0.49 0.46 0.43 0.42 0.40 0.39 0.38 0.37 0.36 0.34 0.33 0.31 0.27 0.25 0.22 0.20 0.18 0.17 0.17 0.17 0.16 0.16 0.16 0.15 0.15 0.15 0.15 0.15 0.15 0.14 0.14 0.15 0.15 0.15 0.15 0.16 0.17 0.19 0.20 0.22 0.23 0.23
0.62 0.64 0.66 0.67 0.66 0.65 0.60 0.55 0.52 0.50 0.48 0.46 0.43 0.41 0.40 0.39 0.38 0.37 0.36 0.34 0.32 0.30 0.27 0.25 0.23 0.20 0.18 0.18 0.17 0.17 0.17 0.16 0.16 0.15 0.15 0.14 0.15 0.14 0.14 0.14 0.14 0.15 0.14 0.14 0.16 0.16 0.16 0.17 0.19 0.21 0.21 0.22
0.57 0.60 0.62 0.63 0.63 0.63 0.61 0.56 0.52 0.49 0.47 0.45 0.43 0.40 0.39 0.39 0.38 0.38 0.36 0.35 0.31 0.29 0.27 0.25 0.23 0.21 0.20 0.19 0.18 0.17 0.17 0.16 0.16 0.15 0.15 0.15 0.14 0.14 0.14 0.14 0.15 0.15 0.15 0.14 0.14 0.15 0.16 0.16 0.17 0.19 0.20 0.20
0.53 0.55 0.58 0.59 0.60 0.60 0.59 0.56 0.52 0.49 0.46 0.44 0.42 0.40 0.39 0.38 0.38 0.37 0.36 0.33 0.31 0.28 0.27 0.25 0.24 0.22 0.21 0.20 0.19 0.19 0.18 0.18 0.16 0.16 0.15 0.16 0.15 0.14 0.14 0.14 0.15 0.16 0.15 0.15 0.15 0.15 0.16 0.16 0.17 0.17 0.19 0.20
0.48 0.50 0.51 0.53 0.54 0.55 0.55 0.54 0.51 0.48 0.46 0.44 0.42 0.41 0.38 0.37 0.37 0.36 0.34 0.32 0.31 0.29 0.27 0.26 0.25 0.24 0.23 0.22 0.21 0.20 0.19 0.18 0.18 0.17 0.16 0.16 0.16 0.16 0.14 0.15 0.15 0.16 0.16 0.16 0.15 0.16 0.16 0.17 0.17 0.16 0.18 0.19
0.44 0.45 0.46 0.47 0.48 0.48 0.49 0.49 0.48 0.47 0.45 0.43 0.42 0.40 0.38 0.37 0.35 0.34 0.33 0.32 0.31 0.30 0.28 0.27 0.25 0.24 0.23 0.23 0.22 0.21 0.21 0.19 0.19 0.18 0.17 0.15 0.17 0.17 0.16 0.15 0.15 0.16 0.16 0.16 0.16 0.16 0.16 0.17 0.18 0.17 0.18 0.19
0.39 0.40 0.41 0.43 0.44 0.44 0.45 0.46 0.46 0.45 0.43 0.43 0.42 0.40 0.39 0.37 0.34 0.33 0.33 0.32 0.32 0.31 0.30 0.28 0.27 0.25 0.24 0.23 0.22 0.21 0.20 0.20 0.19 0.18 0.17 0.16 0.16 0.18 0.17 0.16 0.16 0.16 0.17 0.16 0.16 0.16 0.17 0.17 0.17 0.18 0.18 0.19
0.35 0.35 0.35 0.34 0.36 0.37 0.40 0.42 0.42 0.43 0.42 0.41 0.40 0.40 0.39 0.37 0.35 0.33 0.33 0.33 0.32 0.31 0.30 0.29 0.27 0.25 0.24 0.23 0.22 0.21 0.20 0.19 0.19 0.17 0.16 0.16 0.16 0.16 0.17 0.18 0.17 0.17 0.17 0.17 0.16 0.16 0.17 0.17 0.18 0.18 0.19 0.19
0.31 0.30 0.31 0.31 0.31 0.31 0.32 0.34 0.36 0.37 0.37 0.37 0.37 0.36 0.35 0.35 0.34 0.33 0.32 0.31 0.31 0.31 0.30 0.29 0.28 0.26 0.25 0.25 0.24 0.23 0.21 0.20 0.19 0.19 0.18 0.17 0.17 0.16 0.16 0.16 0.17 0.18 0.18 0.16 0.15 0.16 0.16 0.17 0.18 0.19 0.19 0.19
0.30 0.30 0.30 0.29 0.30 0.30 0.30 0.30 0.31 0.31 0.32 0.33 0.33 0.33 0.32 0.32 0.32 0.31 0.30 0.30 0.29 0.29 0.29 0.28 0.27 0.26 0.25 0.25 0.25 0.24 0.23 0.22 0.21 0.21 0.20 0.19 0.17 0.18 0.16 0.16 0.18 0.18 0.17 0.15 0.14 0.14 0.14 0.15 0.17 0.18 0.18 0.19
0.29 0.29 0.30 0.30 0.30 0.30 0.30 0.31 0.31 0.30 0.31 0.31 0.31 0.31 0.31 0.31 0.31 0.31 0.31 0.31 0.30 0.29 0.29 0.28 0.27 0.26 0.26 0.25 0.25 0.23 0.22 0.21 0.20 0.19 0.18 0.18 0.16 0.16 0.17 0.16 0.18 0.17 0.17 0.14 0.15 0.16 0.14 0.13 0.12 0.14 0.16 0.18
0.30 0.30 0.31 0.31 0.31 0.31 0.31 0.30 0.31 0.31 0.31 0.31 0.31 0.31 0.32 0.32 0.33 0.32 0.32 0.31 0.31 0.30 0.30 0.29 0.27 0.27 0.26 0.25 0.25 0.23 0.21 0.20 0.19 0.19 0.18 0.17 0.17 0.16 0.14 0.15 0.15 0.17 0.17 0.16 0.15 0.12 0.12 0.12 0.13 0.11 0.12 0.14
0.30 0.30 0.30 0.31 0.31 0.31 0.31 0.32 0.31 0.31 0.30 0.31 0.31 0.32 0.32 0.33 0.34 0.33 0.32 0.32 0.31 0.31 0.30 0.30 0.29 0.28 0.27 0.27 0.26 0.25 0.23 0.22 0.20 0.20 0.19 0.19 0.18 0.17 0.15 0.14 0.15 0.17 0.19 0.18 0.18 0.15 0.13 0.12 0.12 0.11 0.12 0.15
0.28 0.28 0.28 0.28 0.28 0.28 0.28 0.28 0.29 0.28 0.29 0.30 0.30 0.30 0.32 0.32 0.33 0.33 0.33 0.32 0.32 0.31 0.31 0.30 0.29 0.29 0.28 0.27 0.27 0.26 0.24 0.23 0.22 0.21 0.20 0.19 0.19 0.18 0.18 0.16 0.15 0.16 0.19 0.20 0.19 0.19 0.17 0.15 0.13 0.13 0.15 0.15
0.29 0.28 0.28 0.27 0.27 0.27 0.27 0.27 0.29 0.30 0.31 0.31 0.31 0.31 0.31 0.32 0.33 0.33 0.33 0.33 0.33 0.32 0.32 0.31 0.30 0.29 0.29 0.28 0.27 0.27 0.26 0.24 0.23 0.22 0.21 0.21 0.20 0.19 0.19 0.19 0.16 0.16 0.16 0.19 0.20 0.20 0.20 0.19 0.18 0.18 0.15 0.14
Wind_Speed
29 29 28 28 28 27 27 27 27 27 27 27 26 26 26 26 26 26 26 26 26 25 25 24 24 24 24 23 23 23 23 23 23 23 23 23 23 23 23 22 22 22 22 22 22 22 22 22 21 21 21 21
29 29 28 28 28 28 28 28 28 28 27 27 27 27 27 27 27 27 26 26 26 26 25 25 25 25 24 24 24 24 24 24 24 24 24 24 24 24 23 23 23 23 23 22 22 22 22 22 22 22 21 21
28 28 28 28 28 28 28 28 28 28 28 27 27 27 27 27 27 27 27 26 26 26 26 26 25 25 25 24 24 24 24 24 24 24 24 24 24 24 24 24 23 23 23 23 23 23 23 22 22 22 22 22
28 28 28 28 28 28 28 28 28 28 28 27 27 27 27 27 27 27 27 27 26 26 26 26 26 25 25 25 25 25 25 25 25 25 25 25 25 24 24 24 24 24 24 24 23 23 23 23 23 23 23 23
28 28 28 28 28 28 28 28 28 28 28 28 27 27 27 27 27 27 27 27 27 27 27 27 26 26 26 25 25 25 25 25 25 25 25 25 25 25 25 25 25 24 24 24 24 24 24 24 24 24 24 23
28 28 28 28 28 28 28 28 28 28 28 28 28 27 27 27 27 27 27 27 27 27 27 27 27 27 27 26 26 26 26 26 26 26 26 26 26 26 26 25 25 25 25 25 25 25 25 25 25 25 25 24
29 29 29 29 28 29 29 29 29 29 28 28 28 28 28 28 28 28 28 28 28 28 28 28 28 27 27 27 27 27 27 27 27 27 27 27 27 27 26 26 26 26 26 26 26 25 25 25 25 25 25 25
30 30 30 29 29 29 29 29 29 29 29 29 29 29 29 29 29 29 29 29 29 29 29 28 28 28 28 28 28 28 28 28 28 28 28 28 28 28 27 27 27 27 27 27 26 26 26 26 26 26 26 26
30 30 30 30 30 30 30 30 30 30 30 30 30 30 30 30 30 30 30 30 30 30 30 29 29 29 28 28 28 29 29 29 29 29 29 29 29 29 28 28 28 28 28 28 28 27 27 27 27 27 28 27
31 31 31 31 31 31 31 31 31 31 31 30 30 30 30 30 30 30 30 30 30 30 30 30 30 29 29 29 29 29 29 30 30 30 30 30 30 30 29 29 29 29 29 29 29 29 29 28 28 28 29 28
31 31 31 31 31 31 31 31 31 31 31 31 31 31 31 31 31 31 31 31 31 31 31 31 30 30 30 30 30 30 30 30 30 31 31 31 31 30 30 30 30 30 30 30 30 30 30 30 30 29 29 29
32 32 32 32 32 32 32 32 32 32 32 32 32 31 31 31 31 31 31 31 31 32 31 31 31 31 31 31 31 31 31 31 31 31 31 31 31 31 31 31 31 31 31 31 31 31 31 31 31 31 30 30
33 33 33 33 33 33 33 33 33 32 32 32 32 32 32 31 31 31 31 32 32 32 32 32 31 31 31 31 31 32 32 32 32 32 32 32 32 32 32 32 32 32 32 32 32 32 32 32 32 32 31 31
34 34 34 34 34 34 33 33 33 33 32 32 32 32 32 32 32 32 32 32 32 32 32 32 32 32 32 32 32 32 32 33 33 33 33 33 33 33 33 33 33 33 33 33 33 33 33 33 33 32 32 32
34 35 35 34 34 34 34 34 34 33 33 33 32 32 32 32 32 32 32 32 32 32 32 32 32 32 32 32 32 33 33 33 33 33 33 34 34 34 34 33 33 33 34 34 34 34 33 33 33 33 33 33
35 35 35 35 35 35 35 35 34 34 33 33 33 33 33 33 33 33 33 33 33 33 33 33 33 33 33 33 33 33 34 34 34 34 34 34 34 34 34 34 34 34 34 34 34 34 34 34 34 34 34 34
35 35 35 36 36 36 36 35 35 35 34 34 34 34 34 33 33 33 34 34 34 34 34 34 33 33 34 34 34 34 35 35 35 35 35 35 34 35 35 34 34 35 35 35 35 35 35 35 35 35 35 35
35 35 36 36 36 36 36 36 36 36 35 35 35 35 35 35 35 35 35 35 35 35 35 35 34 34 34 35 35 35 36 36 36 36 35 35 35 35 35 35 35 35 35 36 36 36 36 36 36 36 35 35
36 36 36 36 37 37 37 37 37 37 36 36 36 36 36 36 36 36 36 36 36 36 36 36 35 35 35 35 36 36 36 36 36 36 36 36 36 36 36 36 36 36 36 36 36 36 36 36 36 36 36 36
36 36 36 36 37 37 37 38 38 38 37 37 37 37 37 37 37 37 37 37 37 37 37 37 36 36 36 36 37 37 37 37 37 37 37 37 37 37 37 37 37 37 37 37 37 37 37 37 37 37 37 37
36 36 36 37 37 37 38 38 38 38 38 38 38 38 38 38 38 38 38 38 38 38 38 38 38 37 37 37 37 38 38 38 38 38 38 39 39 39 39 39 39 38 38 38 38 38 38 38 37 37 38 38
36 36 36 37 37 38 38 38 39 39 39 39 39 39 39 39 39 39 39 39 39 39 39 39 39 38 38 38 38 38 39 39 39 39 39 40 40 40 40 40 40 40 39 39 39 39 39 39 38 39 39 39
35 35 36 36 37 38 38 39 39 39 39 39 39 39 40 40 40 40 40 40 40 40 40 39 39 39 39 39 39 39 39 40 40 40 40 41 41 40 40 41 40 40 40 40 40 40 40 40 40 40 40 40
35 35 36 36 37 38 38 39 39 40 40 40 40 40 40 40 41 41 41 41 41 40 40 40 40 40 40 40 40 40 40 41 41 41 41 41 41 41 41 41 41 41 41 41 41 41 41 41 41 41 41 41
36 36 36 36 37 38 38 38 39 40 40 41 41 41 41 41 41 41 41 41 41 41 41 41 41 41 41 41 41 41 42 42 42 42 42 42 42 42 42 42 42 42 42 42 42 42 43 43 43 43 43 43
36 36 36 37 37 37 38 38 39 39 40 40 41 41 41 41 41 41 42 42 42 42 42 42 42 42 42 42 42 42 42 43 43 43 43 43 43 43 44 44 43 43 43 43 43 43 43 44 44 45 45 45
36 37 37 37 37 37 37 38 38 39 39 40 40 41 41 41 41 42 42 42 42 43 43 43 43 43 43 43 43 43 43 43 43 44 44 44 44 45 45 45 45 45 45 44 43 43 43 44 44 45 46 46
36 36 36 37 37 37 37 38 38 38 39 39 40 40 40 41 41 41 42 42 42 43 43 44 43 43 44 44 44 44 44 44 44 45 45 45 45 45 45 46 46 46 46 46 45 44 44 44 44 45 46 46
34 35 35 36 36 37 37 38 38 38 39 39 40 40 40 41 41 41 42 42 43 43 43 44 44 44 44 44 45 45 45 45 45 45 46 46 47 47 47 47 47 47 47 48 47 46 45 44 45 46 45 45
33 34 35 35 36 37 37 38 38 39 39 40 40 40 40 41 41 42 42 42 43 43 44 44 44 44 45 45 45 45 46 46 46 46 47 47 48 48 49 48 48 49 49 49 50 49 49 47 47 47 46 46
33 33 34 35 36 37 37 38 39 39 40 40 40 41 41 41 42 42 42 43 43 44 44 44 45 45 45 45 46 46 46 47 47 47 48 48 49 49 50 50 50 50 50 50 51 52 52 52 51 50 49 48
Wind_Direction
245 246 247 248 249 250 251 252 253 254 256 257 258 259 260 261 261 262 262 262 263 262 262 263 264 265 265 265 264 264 263 262 262 262 261 261 260 260 259 259 258 258 258 258 258 258 258 259 259 259 259 260
246 246 247 248 249 250 251 252 254 255 256 257 258 259 259 260 261 261 262 262 262 261 261 262 263 264 264 264 263 262 262 261 261 260 260 259 259 259 259 258 258 257 257 257 257 258 259 259 259 259 260 260
246 246 248 249 250 251 252 253 254 255 256 257 258 259 259 260 261 261 261 261 261 261 261 262 263 263 263 263 262 261 261 260 260 259 259 258 258 258 258 257 257 257 257 258 258 258 259 259 259 259 260 260
247 247 249 250 251 251 252 254 255 255 256 257 258 258 259 260 260 261 261 261 261 261 262 263 263 263 263 262 261 261 260 260 259 259 258 258 258 257 257 257 257 258 258 258 258 258 259 259 259 260 260 260
248 249 250 251 252 252 253 254 255 256 256 256 257 258 259 259 260 260 261 261 261 262 262 263 263 263 263 262 261 261 260 260 259 259 259 259 258 258 258 258 258 258 258 259 259 259 259 259 259 260 260 260
249 250 250 251 252 253 254 254 254 255 255 256 256 258 258 259 259 259 260 260 261 262 262 262 263 263 262 262 261 261 261 260 260 260 260 259 259 259 259 259 259 259 259 259 259 259 259 259 260 260 260 260
250 250 251 252 253 254 254 255 255 255 256 256 257 257 258 258 259 259 259 260 261 261 262 262 263 263 262 262 261 261 261 261 260 260 260 260 259 259 259 259 259 259 259 259 259 259 259 259 260 259 259 260
250 250 251 252 254 254 255 255 255 255 256 256 257 257 257 258 258 259 260 260 261 262 262 263 263 263 262 262 261 261 261 261 260 260 260 260 259 259 259 258 259 259 258 258 258 258 258 259 259 259 259 259
251 250 251 252 253 254 254 255 255 255 256 256 257 258 258 258 259 259 260 261 262 262 263 263 263 263 263 263 262 261 261 261 261 260 260 260 259 259 259 258 258 258 258 258 257 258 258 258 258 259 259 259
251 251 251 252 252 254 254 254 255 256 256 256 257 258 258 258 259 259 260 261 262 263 263 263 263 263 263 263 262 262 261 261 261 260 260 259 259 259 259 259 258 259 259 258 257 257 258 258 258 258 259 259
251 251 251 252 253 254 255 255 256 257 257 257 258 258 258 258 259 260 261 261 262 263 263 263 263 263 263 262 262 262 261 261 261 260 260 259 259 259 259 259 259 259 259 258 258 258 258 258 258 258 258 259
252 251 252 253 254 255 255 256 257 258 258 258 259 259 259 259 259 260 261 262 262 262 263 263 263 262 262 261 261 261 261 260 260 260 259 259 259 259 259 259 259 259 259 259 258 258 258 258 258 258 258 259
252 252 253 254 255 255 256 257 257 258 258 258 259 259 259 259 259 260 261 262 262 262 263 263 262 262 261 261 260 260 260 260 259 259 259 259 259 259 259 259 259 259 259 259 258 258 258 258 258 258 258 258
253 253 254 255 255 255 256 257 257 257 258 258 258 258 258 258 259 260 260 261 261 262 262 262 262 261 261 260 260 259 260 259 259 259 259 259 259 259 259 259 259 259 259 259 258 258 258 258 257 257 257 257
254 254 255 255 255 255 256 256 257 257 257 258 258 258 258 258 259 259 260 261 261 262 262 262 262 261 261 260 260 259 260 260 259 259 259 259 259 259 259 259 259 259 259 259 259 258 258 258 257 257 257 257
255 255 255 255 255 255 256 256 256 257 257 257 257 257 257 258 259 259 260 260 261 262 262 263 262 262 261 260 260 260 260 260 259 259 259 259 259 259 259 259 259 259 259 259 259 259 258 258 258 258 257 257
255 255 255 255 255 255 256 256 256 257 257 257 257 257 257 258 258 259 260 261 261 262 262 263 263 262 262 261 260 260 260 260 259 259 259 259 259 259 259 259 259 259 259 259 259 259 258 258 258 258 258 257
256 255 255 256 256 256 256 256 256 257 257 257 257 257 257 258 259 260 260 261 261 262 262 263 263 263 262 261 261 260 260 260 259 259 259 259 259 259 259 259 259 260 260 260 259 259 259 258 258 258 258 258
256 256 256 256 256 256 256 256 257 257 257 257 257 257 257 258 259 260 260 261 261 262 262 263 263 263 262 262 261 261 260 260 260 260 259 259 259 259 259 259 259 259 259 260 260 259 259 259 258 258 258 258
256 256 256 257 257 257 257 257 257 257 257 257 257 257 258 258 259 260 261 261 261 262 262 263 263 263 263 262 261 261 261 260 260 260 260 259 259 259 259 259 259 259 259 259 260 259 259 259 259 258 258 258
257 257 257 257 258 258 258 258 258 258 258 258 258 258 259 259 260 261 261 261 261 262 262 262 263 263 262 262 261 261 261 261 260 260 260 260 259 259 259 259 259 259 260 260 260 260 260 259 259 259 258 257
258 258 258 259 259 259 259 259 259 258 258 259 259 259 260 260 260 261 261 261 261 262 262 262 262 263 262 262 261 261 261 261 261 260 260 260 260 259 259 259 259 259 260 260 260 260 260 260 259 259 259 258
258 258 259 259 260 260 260 260 259 259 259 259 259 260 260 261 261 261 261 261 262 262 262 262 262 262 262 261 261 261 261 261 261 260 260 260 260 259 259 260 259 260 260 260 260 260 260 260 260 260 259 259
258 259 259 260 260 260 260 260 260 260 260 260 260 261 261 261 261 261 261 262 262 262 262 262 262 262 262 261 261 261 261 261 261 260 260 259 259 259 260 260 260 260 260 260 261 261 260 260 260 260 259 259
259 259 260 260 260 261 261 261 261 261 261 260 261 261 261 261 261 261 261 261 261 262 262 262 262 262 262 261 261 262 262 261 261 260 260 260 260 259 260 260 260 260 259 260 260 261 261 261 260 260 259 260
260 260 261 261 262 262 262 262 262 262 262 261 261 261 261 261 261 261 261 261 261 261 261 262 262 262 262 261 262 262 262 262 261 260 260 260 260 259 260 260 260 259 259 259 260 260 261 262 261 260 260 260
262 262 262 262 262 263 263 263 263 263 263 262 262 262 262 262 261 261 261 261 262 262 262 262 262 262 262 262 262 262 262 261 261 260 260 260 260 260 260 260 260 259 258 259 259 260 261 262 262 262 261 260
263 263 263 263 263 263 263 263 263 263 263 263 263 263 262 262 262 262 262 262 262 262 262 262 263 262 262 262 262 262 262 261 261 260 260 260 260 260 260 260 260 259 259 258 259 260 261 262 262 263 262 261
265 264 264 263 263 263 263 263 263 262 263 263 262 262 262 262 261 262 262 262 262 263 263 263 263 263 263 263 262 262 262 262 262 261 260 260 260 260 260 260 260 259 259 258 258 259 260 262 262 263 263 263
266 265 265 264 263 263 263 263 263 263 263 263 263 263 263 262 262 262 262 262 263 263 263 263 263 263 263 263 263 263 263 263 262 262 262 261 261 261 260 260 260 260 259 259 258 259 259 261 262 263 263 263
268 267 266 265 264 264 264 263 264 265 265 265 265 264 264 263 263 262 263 263 263 263 263 264 264 264 264 264 264 264 264 263 263 263 263 262 262 262 261 261 260 260 260 259 259 259 259 260 261 262 263 263